Time,TemperatureF,DewpointF,PressureIn,WindDirection,WindDirectionDegrees,WindSpeedMPH,WindSpeedGustMPH,Humidity,HourlyPrecipIn,Conditions,Clouds,dailyrainin,SoftwareType,DateUTC
2013-10-05 00:00:00,67.8,64.1,30.12,ENE,57,0.0,0.0,88,0.00,,,0.00,Wunderground v.1.15,2013-10-05 04:00:00,
2013-10-05 00:05:00,67.7,64.0,30.11,ENE,57,0.0,0.0,88,0.00,,,0.00,Wunderground v.1.15,2013-10-05 04:05:00,
2013-10-05 00:10:00,67.5,64.1,30.11,ENE,57,0.0,0.0,89,0.00,,,0.00,Wunderground v.1.15,2013-10-05 04:10:00,
2013-10-05 00:15:00,67.5,64.1,30.11,ENE,57,0.0,0.0,89,0.00,,,0.00,Wunderground v.1.15,2013-10-05 04:15:00,
2013-10-05 00:20:00,67.6,64.2,30.11,ENE,57,0.0,0.0,89,0.00,,,0.00,Wunderground v.1.15,2013-10-05 04:20:00,
2013-10-05 00:25:00,67.5,64.1,30.11,ENE,57,0.0,0.0,89,0.00,,,0.00,Wunderground v.1.15,2013-10-05 04:25:00,
2013-10-05 00:30:00,67.5,64.5,30.11,ENE,57,0.0,0.0,90,0.00,,,0.00,Wunderground v.1.15,2013-10-05 04:30:00,
2013-10-05 00:35:00,67.4,64.0,30.11,ENE,57,0.0,0.0,89,0.00,,,0.00,Wunderground v.1.15,2013-10-05 04:35:00,
2013-10-05 00:40:00,67.4,64.4,30.11,ENE,57,0.0,0.0,90,0.00,,,0.00,Wunderground v.1.15,2013-10-05 04:40:00,
2013-10-05 00:45:00,67.4,64.4,30.11,ENE,57,0.0,0.0,90,0.00,,,0.00,Wunderground v.1.15,2013-10-05 04:45:00,
2013-10-05 00:50:00,67.6,64.6,30.10,ENE,57,0.0,0.0,90,0.00,,,0.00,Wunderground v.1.15,2013-10-05 04:50:00,
2013-10-05 00:55:00,67.7,64.7,30.11,ENE,57,0.0,0.0,90,0.00,,,0.00,Wunderground v.1.15,2013-10-05 04:55:00,
2013-10-05 01:00:00,67.8,64.8,30.11,ENE,57,0.0,0.0,90,0.00,,,0.00,Wunderground v.1.15,2013-10-05 05:00:00,
2013-10-05 01:10:00,68.0,64.6,30.10,ENE,57,0.0,0.0,89,0.00,,,0.00,Wunderground v.1.15,2013-10-05 05:10:00,
2013-10-05 01:15:00,68.1,64.7,30.11,ENE,57,0.0,0.0,89,0.00,,,0.00,Wunderground v.1.15,2013-10-05 05:15:00,
2013-10-05 01:20:00,68.1,64.7,30.11,ENE,57,0.0,0.0,89,0.00,,,0.00,Wunderground v.1.15,2013-10-05 05:20:00,
2013-10-05 01:25:00,68.0,64.3,30.11,ENE,57,0.0,0.0,88,0.00,,,0.00,Wunderground v.1.15,2013-10-05 05:25:00,
2013-10-05 01:30:00,67.9,64.2,30.11,ENE,57,0.0,0.0,88,0.00,,,0.00,Wunderground v.1.15,2013-10-05 05:30:00,
2013-10-05 01:35:00,67.8,64.1,30.11,ENE,57,0.0,0.0,88,0.00,,,0.00,Wunderground v.1.15,2013-10-05 05:35:00,
2013-10-05 01:45:00,67.7,64.3,30.11,ENE,57,0.0,0.0,89,0.00,,,0.00,Wunderground v.1.15,2013-10-05 05:45:00,
2013-10-05 01:50:00,67.8,64.4,30.11,ENE,57,0.0,0.0,89,0.00,,,0.00,Wunderground v.1.15,2013-10-05 05:50:00,
2013-10-05 01:55:00,67.7,64.0,30.11,ENE,57,0.0,0.0,88,0.00,,,0.00,Wunderground v.1.15,2013-10-05 05:55:00,
2013-10-05 02:00:00,67.6,64.2,30.11,ENE,57,0.0,0.0,89,0.00,,,0.00,Wunderground v.1.15,2013-10-05 06:00:00,
2013-10-05 02:10:00,67.2,64.2,30.11,ENE,57,0.0,0.0,90,0.00,,,0.00,Wunderground v.1.15,2013-10-05 06:10:00,
2013-10-05 02:20:00,67.0,64.0,30.11,ENE,57,0.0,0.0,90,0.00,,,0.00,Wunderground v.1.15,2013-10-05 06:20:00,
2013-10-05 02:25:00,66.8,64.1,30.11,ENE,57,0.0,0.0,91,0.00,,,0.00,Wunderground v.1.15,2013-10-05 06:25:00,
2013-10-05 02:30:00,66.7,64.0,30.11,ENE,57,0.0,0.0,91,0.00,,,0.00,Wunderground v.1.15,2013-10-05 06:30:00,
2013-10-05 02:35:00,66.5,63.8,30.10,ENE,57,0.0,0.0,91,0.00,,,0.00,Wunderground v.1.15,2013-10-05 06:35:00,
2013-10-05 02:40:00,66.2,63.8,30.10,ENE,57,0.0,0.0,92,0.00,,,0.00,Wunderground v.1.15,2013-10-05 06:40:00,
2013-10-05 02:45:00,66.0,63.3,30.10,ENE,57,0.0,0.0,91,0.00,,,0.00,Wunderground v.1.15,2013-10-05 06:45:00,
2013-10-05 02:50:00,65.8,63.4,30.10,ENE,57,0.0,0.0,92,0.00,,,0.00,Wunderground v.1.15,2013-10-05 06:50:00,
2013-10-05 03:00:00,65.8,63.7,30.10,ENE,57,0.0,0.0,93,0.00,,,0.00,Wunderground v.1.15,2013-10-05 07:00:00,
2013-10-05 03:10:00,65.8,63.7,30.10,ENE,57,0.0,0.0,93,0.00,,,0.00,Wunderground v.1.15,2013-10-05 07:10:00,
2013-10-05 03:15:00,65.8,63.7,30.10,ENE,57,0.0,0.0,93,0.00,,,0.00,Wunderground v.1.15,2013-10-05 07:15:00,
2013-10-05 03:20:00,65.7,63.6,30.10,ENE,57,0.0,0.0,93,0.00,,,0.00,Wunderground v.1.15,2013-10-05 07:20:00,
2013-10-05 03:25:00,65.6,63.5,30.10,ENE,57,0.0,0.0,93,0.00,,,0.00,Wunderground v.1.15,2013-10-05 07:25:00,
2013-10-05 03:35:00,65.7,63.9,30.10,ENE,57,0.0,0.0,94,0.00,,,0.00,Wunderground v.1.15,2013-10-05 07:35:00,
2013-10-05 03:40:00,65.8,64.0,30.10,ENE,57,0.0,0.0,94,0.00,,,0.00,Wunderground v.1.15,2013-10-05 07:40:00,
2013-10-05 03:45:00,65.8,64.0,30.09,ENE,57,0.0,0.0,94,0.00,,,0.00,Wunderground v.1.15,2013-10-05 07:45:00,
2013-10-05 03:50:00,65.9,64.1,30.09,ENE,57,0.0,0.0,94,0.00,,,0.00,Wunderground v.1.15,2013-10-05 07:50:00,
2013-10-05 03:55:00,65.9,64.1,30.10,ENE,57,0.0,0.0,94,0.00,,,0.00,Wunderground v.1.15,2013-10-05 07:55:00,
2013-10-05 04:00:00,65.9,64.1,30.10,ENE,57,0.0,0.0,94,0.00,,,0.00,Wunderground v.1.15,2013-10-05 08:00:00,
2013-10-05 04:10:00,66.0,64.2,30.10,ENE,57,0.0,0.0,94,0.00,,,0.00,Wunderground v.1.15,2013-10-05 08:10:00,
2013-10-05 04:15:00,66.0,64.2,30.10,ENE,57,0.0,0.0,94,0.00,,,0.00,Wunderground v.1.15,2013-10-05 08:15:00,
2013-10-05 04:20:00,65.8,64.0,30.09,ENE,57,0.0,0.0,94,0.00,,,0.00,Wunderground v.1.15,2013-10-05 08:20:00,
2013-10-05 04:25:00,65.8,64.0,30.10,ENE,57,0.0,0.0,94,0.00,,,0.00,Wunderground v.1.15,2013-10-05 08:25:00,
2013-10-05 04:30:00,65.7,63.9,30.09,ENE,57,0.0,0.0,94,0.00,,,0.00,Wunderground v.1.15,2013-10-05 08:30:00,
2013-10-05 04:35:00,65.6,63.8,30.09,ENE,57,0.0,0.0,94,0.00,,,0.00,Wunderground v.1.15,2013-10-05 08:35:00,
2013-10-05 04:45:00,65.4,63.6,30.09,ENE,57,0.0,0.0,94,0.00,,,0.00,Wunderground v.1.15,2013-10-05 08:45:00,
2013-10-05 04:50:00,65.3,63.5,30.10,ENE,57,0.0,0.0,94,0.00,,,0.00,Wunderground v.1.15,2013-10-05 08:50:00,
2013-10-05 04:55:00,65.3,63.5,30.10,ENE,57,0.0,0.0,94,0.00,,,0.00,Wunderground v.1.15,2013-10-05 08:55:00,
2013-10-05 05:00:00,65.1,63.3,30.10,ENE,57,0.0,0.0,94,0.00,,,0.00,Wunderground v.1.15,2013-10-05 09:00:00,
2013-10-05 05:10:00,64.9,63.4,30.10,ENE,57,0.0,0.0,95,0.00,,,0.00,Wunderground v.1.15,2013-10-05 09:10:00,
2013-10-05 05:20:00,64.9,63.4,30.10,ENE,57,0.0,0.0,95,0.00,,,0.00,Wunderground v.1.15,2013-10-05 09:20:00,
2013-10-05 05:25:00,64.8,63.3,30.10,ENE,57,0.0,0.0,95,0.00,,,0.00,Wunderground v.1.15,2013-10-05 09:25:00,
2013-10-05 05:30:00,64.3,62.5,30.10,ENE,57,0.0,0.0,94,0.00,,,0.00,Wunderground v.1.15,2013-10-05 09:30:00,
2013-10-05 05:35:00,63.9,62.1,30.10,ENE,57,0.0,0.0,94,0.00,,,0.00,Wunderground v.1.15,2013-10-05 09:35:00,
2013-10-05 05:40:00,63.9,62.4,30.11,ENE,57,0.0,0.0,95,0.00,,,0.00,Wunderground v.1.15,2013-10-05 09:40:00,
2013-10-05 05:45:00,64.3,62.8,30.11,ENE,57,0.0,0.0,95,0.00,,,0.00,Wunderground v.1.15,2013-10-05 09:45:00,
2013-10-05 05:55:00,64.3,62.8,30.11,ENE,57,0.0,0.0,95,0.00,,,0.00,Wunderground v.1.15,2013-10-05 09:55:00,
2013-10-05 06:00:00,64.1,62.6,30.11,ENE,57,0.0,0.0,95,0.00,,,0.00,Wunderground v.1.15,2013-10-05 10:00:00,
2013-10-05 06:10:00,63.5,62.0,30.12,ENE,57,0.0,0.0,95,0.00,,,0.00,Wunderground v.1.15,2013-10-05 10:10:00,
2013-10-05 06:15:00,63.5,62.0,30.12,ENE,57,0.0,0.0,95,0.00,,,0.00,Wunderground v.1.15,2013-10-05 10:15:00,
2013-10-05 06:20:00,63.6,62.4,30.12,ENE,57,0.0,0.0,96,0.00,,,0.00,Wunderground v.1.15,2013-10-05 10:20:00,
2013-10-05 06:30:00,63.5,62.0,30.11,ENE,57,0.0,0.0,95,0.00,,,0.00,Wunderground v.1.15,2013-10-05 10:30:00,
2013-10-05 06:35:00,63.5,62.3,30.12,ENE,57,0.0,0.0,96,0.00,,,0.00,Wunderground v.1.15,2013-10-05 10:35:00,
2013-10-05 06:40:00,63.4,62.2,30.12,ENE,57,0.0,0.0,96,0.00,,,0.00,Wunderground v.1.15,2013-10-05 10:40:00,
2013-10-05 06:45:00,63.4,62.2,30.12,ENE,57,0.0,0.0,96,0.00,,,0.00,Wunderground v.1.15,2013-10-05 10:45:00,
2013-10-05 06:50:00,63.3,62.1,30.12,ENE,57,0.0,0.0,96,0.00,,,0.00,Wunderground v.1.15,2013-10-05 10:50:00,
2013-10-05 06:55:00,63.1,61.9,30.12,ENE,57,0.0,0.0,96,0.00,,,0.00,Wunderground v.1.15,2013-10-05 10:55:00,
2013-10-05 07:00:00,63.1,61.9,30.12,ENE,57,0.0,0.0,96,0.00,,,0.00,Wunderground v.1.15,2013-10-05 11:00:00,
2013-10-05 07:10:00,63.0,61.8,30.12,ENE,57,0.0,0.0,96,0.00,,,0.00,Wunderground v.1.15,2013-10-05 11:10:00,
2013-10-05 07:15:00,62.9,61.7,30.12,ENE,57,0.0,0.0,96,0.00,,,0.00,Wunderground v.1.15,2013-10-05 11:15:00,
2013-10-05 07:20:00,62.8,61.6,30.12,ENE,57,0.0,0.0,96,0.00,,,0.00,Wunderground v.1.15,2013-10-05 11:20:00,
2013-10-05 07:25:00,62.7,61.5,30.12,ENE,57,0.0,0.0,96,0.00,,,0.00,Wunderground v.1.15,2013-10-05 11:25:00,
2013-10-05 07:30:00,62.7,61.5,30.13,ENE,57,0.0,0.0,96,0.00,,,0.00,Wunderground v.1.15,2013-10-05 11:30:00,
2013-10-05 07:35:00,62.7,61.5,30.13,ENE,57,0.0,0.0,96,0.00,,,0.00,Wunderground v.1.15,2013-10-05 11:35:00,
2013-10-05 07:45:00,63.2,62.3,30.13,ENE,57,0.0,0.0,97,0.00,,,0.00,Wunderground v.1.15,2013-10-05 11:45:00,
2013-10-05 07:50:00,63.4,62.5,30.13,ENE,57,0.0,0.0,97,0.00,,,0.00,Wunderground v.1.15,2013-10-05 11:50:00,
2013-10-05 07:55:00,63.4,62.2,30.13,ENE,57,0.0,0.0,96,0.00,,,0.00,Wunderground v.1.15,2013-10-05 11:55:00,
2013-10-05 08:00:00,63.6,62.7,30.13,ENE,57,0.0,0.0,97,0.00,,,0.00,Wunderground v.1.15,2013-10-05 12:00:00,
2013-10-05 08:10:00,64.3,63.4,30.13,ENE,57,0.0,0.0,97,0.00,,,0.00,Wunderground v.1.15,2013-10-05 12:10:00,
2013-10-05 08:15:00,64.5,63.6,30.13,ENE,57,0.0,0.0,97,0.00,,,0.00,Wunderground v.1.15,2013-10-05 12:15:00,
2013-10-05 08:25:00,65.2,64.3,30.13,ENE,57,0.0,0.0,97,0.00,,,0.00,Wunderground v.1.15,2013-10-05 12:25:00,
2013-10-05 08:30:00,65.8,64.9,30.13,ENE,63,0.0,0.0,97,0.00,,,0.00,Wunderground v.1.15,2013-10-05 12:30:00,
2013-10-05 08:35:00,66.6,65.7,30.13,ENE,63,0.0,0.0,97,0.00,,,0.00,Wunderground v.1.15,2013-10-05 12:35:00,
2013-10-05 08:40:00,67.2,66.3,30.13,ENE,63,0.0,0.0,97,0.00,,,0.00,Wunderground v.1.15,2013-10-05 12:40:00,
2013-10-05 08:45:00,67.3,66.4,30.13,ENE,63,0.0,0.0,97,0.00,,,0.00,Wunderground v.1.15,2013-10-05 12:45:00,
2013-10-05 08:55:00,68.2,67.0,30.13,ENE,63,0.0,0.0,96,0.00,,,0.00,Wunderground v.1.15,2013-10-05 12:55:00,
2013-10-05 09:00:00,69.0,67.2,30.13,ENE,63,0.0,0.0,94,0.00,,,0.00,Wunderground v.1.15,2013-10-05 13:00:00,
2013-10-05 09:10:00,71.0,67.3,30.13,ENE,63,0.0,0.0,88,0.00,,,0.00,Wunderground v.1.15,2013-10-05 13:10:00,
2013-10-05 09:15:00,72.6,67.8,30.13,ENE,63,0.0,0.0,85,0.00,,,0.00,Wunderground v.1.15,2013-10-05 13:15:00,
2013-10-05 09:20:00,73.2,68.1,30.13,SSW,192,0.0,0.0,84,0.00,,,0.00,Wunderground v.1.15,2013-10-05 13:20:00,
2013-10-05 09:30:00,74.1,67.2,30.13,West,266,0.0,0.0,79,0.00,,,0.00,Wunderground v.1.15,2013-10-05 13:30:00,
2013-10-05 09:35:00,74.6,68.0,30.13,West,266,0.0,0.0,80,0.00,,,0.00,Wunderground v.1.15,2013-10-05 13:35:00,
2013-10-05 09:40:00,75.0,67.7,30.13,West,266,0.0,0.0,78,0.00,,,0.00,Wunderground v.1.15,2013-10-05 13:40:00,
2013-10-05 09:45:00,75.4,68.1,30.13,West,266,0.0,0.0,78,0.00,,,0.00,Wunderground v.1.15,2013-10-05 13:45:00,
2013-10-05 09:50:00,75.8,68.4,30.13,West,266,0.0,0.0,78,0.00,,,0.00,Wunderground v.1.15,2013-10-05 13:50:00,
2013-10-05 09:55:00,76.4,67.9,30.13,West,266,0.0,0.0,75,0.00,,,0.00,Wunderground v.1.15,2013-10-05 13:55:00,
2013-10-05 10:00:00,76.8,68.3,30.13,West,266,0.0,0.0,75,0.00,,,0.00,Wunderground v.1.15,2013-10-05 14:00:00,
2013-10-05 10:10:00,78.1,69.1,30.13,West,266,0.0,0.0,74,0.00,,,0.00,Wunderground v.1.15,2013-10-05 14:10:00,
2013-10-05 10:15:00,78.8,68.6,30.13,West,266,0.0,0.0,71,0.00,,,0.00,Wunderground v.1.15,2013-10-05 14:15:00,
2013-10-05 10:20:00,79.4,69.2,30.13,West,266,0.0,0.0,71,0.00,,,0.00,Wunderground v.1.15,2013-10-05 14:20:00,
2013-10-05 10:25:00,79.7,69.0,30.13,West,266,0.0,0.0,70,0.00,,,0.00,Wunderground v.1.15,2013-10-05 14:25:00,
2013-10-05 10:30:00,80.2,70.4,30.13,West,266,0.0,0.0,72,0.00,,,0.00,Wunderground v.1.15,2013-10-05 14:30:00,
2013-10-05 10:35:00,80.9,70.2,30.13,West,266,0.0,0.0,70,0.00,,,0.00,Wunderground v.1.15,2013-10-05 14:35:00,
2013-10-05 10:45:00,81.1,69.5,30.13,West,266,0.0,0.0,68,0.00,,,0.00,Wunderground v.1.15,2013-10-05 14:45:00,
2013-10-05 10:50:00,81.3,69.7,30.13,West,266,0.0,0.0,68,0.00,,,0.00,Wunderground v.1.15,2013-10-05 14:50:00,
2013-10-05 10:55:00,81.5,69.0,30.13,West,266,0.0,0.0,66,0.00,,,0.00,Wunderground v.1.15,2013-10-05 14:55:00,
2013-10-05 11:00:00,81.9,69.9,30.12,West,266,0.0,0.0,67,0.00,,,0.00,Wunderground v.1.15,2013-10-05 15:00:00,
2013-10-05 11:10:00,82.5,70.0,30.12,West,266,1.0,1.0,66,0.00,,,0.00,Wunderground v.1.15,2013-10-05 15:10:00,
2013-10-05 11:20:00,83.5,68.6,30.12,WSW,244,1.0,1.0,61,0.00,,,0.00,Wunderground v.1.15,2013-10-05 15:20:00,
2013-10-05 11:25:00,83.8,69.9,30.12,WSW,242,1.0,1.0,63,0.00,,,0.00,Wunderground v.1.15,2013-10-05 15:25:00,
2013-10-05 11:30:00,83.8,68.4,30.12,WSW,238,0.0,0.0,60,0.00,,,0.00,Wunderground v.1.15,2013-10-05 15:30:00,
2013-10-05 11:35:00,84.1,69.2,30.12,SSW,213,0.0,0.0,61,0.00,,,0.00,Wunderground v.1.15,2013-10-05 15:35:00,
2013-10-05 11:40:00,84.3,69.4,30.12,SSW,205,1.0,1.0,61,0.00,,,0.00,Wunderground v.1.15,2013-10-05 15:40:00,
2013-10-05 11:50:00,84.8,67.9,30.12,South,169,1.0,1.0,57,0.00,,,0.00,Wunderground v.1.15,2013-10-05 15:50:00,
2013-10-05 11:55:00,85.2,68.2,30.12,SSE,158,1.0,6.0,57,0.00,,,0.00,Wunderground v.1.15,2013-10-05 15:55:00,
2013-10-05 12:00:00,85.3,69.3,30.12,SSE,157,1.0,1.0,59,0.00,,,0.00,Wunderground v.1.15,2013-10-05 16:00:00,
2013-10-05 12:10:00,86.4,69.4,30.11,SSE,157,0.0,0.0,57,0.00,,,0.00,Wunderground v.1.15,2013-10-05 16:10:00,
2013-10-05 12:20:00,85.8,68.8,30.11,South,170,1.0,1.0,57,0.00,,,0.00,Wunderground v.1.15,2013-10-05 16:20:00,
2013-10-05 12:25:00,86.2,68.7,30.11,SSE,165,1.0,1.0,56,0.00,,,0.00,Wunderground v.1.15,2013-10-05 16:25:00,
2013-10-05 12:30:00,85.9,67.9,30.11,SSE,157,1.0,6.0,55,0.00,,,0.00,Wunderground v.1.15,2013-10-05 16:30:00,
2013-10-05 12:35:00,86.0,66.9,30.11,SSE,157,1.0,6.0,53,0.00,,,0.00,Wunderground v.1.15,2013-10-05 16:35:00,
2013-10-05 12:40:00,85.9,68.4,30.11,SSE,147,0.0,5.0,56,0.00,,,0.00,Wunderground v.1.15,2013-10-05 16:40:00,
2013-10-05 12:45:00,86.4,66.7,30.10,SE,146,0.0,5.0,52,0.00,,,0.00,Wunderground v.1.15,2013-10-05 16:45:00,
2013-10-05 12:55:00,86.3,67.2,30.10,SE,146,2.0,4.0,53,0.00,,,0.00,Wunderground v.1.15,2013-10-05 16:55:00,
2013-10-05 13:05:00,86.2,67.6,30.10,SE,144,1.0,1.0,54,0.00,,,0.00,Wunderground v.1.15,2013-10-05 17:05:00,
2013-10-05 13:15:00,86.4,66.7,30.10,SW,221,3.0,3.0,52,0.00,,,0.00,Wunderground v.1.15,2013-10-05 17:15:00,
2013-10-05 13:20:00,86.8,68.7,30.09,SE,138,2.0,6.0,55,0.00,,,0.00,Wunderground v.1.15,2013-10-05 17:20:00,
2013-10-05 13:25:00,86.7,67.0,30.09,South,181,3.0,6.0,52,0.00,,,0.00,Wunderground v.1.15,2013-10-05 17:25:00,
2013-10-05 13:30:00,86.3,66.6,30.09,South,185,4.0,4.0,52,0.00,,,0.00,Wunderground v.1.15,2013-10-05 17:30:00,
2013-10-05 13:35:00,86.6,65.7,30.09,South,182,3.0,4.0,50,0.00,,,0.00,Wunderground v.1.15,2013-10-05 17:35:00,
2013-10-05 13:40:00,87.2,68.0,30.09,South,182,2.0,2.0,53,0.00,,,0.00,Wunderground v.1.15,2013-10-05 17:40:00,
2013-10-05 13:45:00,87.2,66.3,30.08,South,182,1.0,3.0,50,0.00,,,0.00,Wunderground v.1.15,2013-10-05 17:45:00,
2013-10-05 13:55:00,86.8,67.1,30.08,South,181,2.0,4.0,52,0.00,,,0.00,Wunderground v.1.15,2013-10-05 17:55:00,
2013-10-05 14:00:00,87.2,66.9,30.08,SSE,159,1.0,5.0,51,0.00,,,0.00,Wunderground v.1.15,2013-10-05 18:00:00,
2013-10-05 14:10:00,86.9,68.3,30.08,SSE,159,1.0,1.0,54,0.00,,,0.00,Wunderground v.1.15,2013-10-05 18:10:00,
2013-10-05 14:15:00,86.8,67.1,30.08,SE,134,0.0,1.0,52,0.00,,,0.00,Wunderground v.1.15,2013-10-05 18:15:00,
2013-10-05 14:20:00,87.0,65.5,30.07,SE,134,0.0,0.0,49,0.00,,,0.00,Wunderground v.1.15,2013-10-05 18:20:00,
2013-10-05 14:30:00,87.9,67.5,30.08,South,184,1.0,4.0,51,0.00,,,0.00,Wunderground v.1.15,2013-10-05 18:30:00,
2013-10-05 14:35:00,87.2,66.9,30.07,South,170,2.0,4.0,51,0.00,,,0.00,Wunderground v.1.15,2013-10-05 18:35:00,
2013-10-05 14:40:00,87.5,66.6,30.07,South,170,1.0,4.0,50,0.00,,,0.00,Wunderground v.1.15,2013-10-05 18:40:00,
2013-10-05 14:45:00,87.3,65.8,30.07,SSW,195,1.0,4.0,49,0.00,,,0.00,Wunderground v.1.15,2013-10-05 18:45:00,
2013-10-05 14:50:00,87.4,68.2,30.07,South,182,1.0,1.0,53,0.00,,,0.00,Wunderground v.1.15,2013-10-05 18:50:00,
2013-10-05 14:55:00,87.2,66.3,30.07,SE,146,1.0,1.0,50,0.00,,,0.00,Wunderground v.1.15,2013-10-05 18:55:00,
2013-10-05 15:00:00,87.9,66.9,30.07,SE,146,1.0,1.0,50,0.00,,,0.00,Wunderground v.1.15,2013-10-05 19:00:00,
2013-10-05 15:10:00,87.9,65.8,30.07,South,190,2.0,2.0,48,0.00,,,0.00,Wunderground v.1.15,2013-10-05 19:10:00,
2013-10-05 15:15:00,87.5,66.0,30.07,South,190,1.0,2.0,49,0.00,,,0.00,Wunderground v.1.15,2013-10-05 19:15:00,
2013-10-05 15:20:00,87.1,66.8,30.07,South,190,1.0,3.0,51,0.00,,,0.00,Wunderground v.1.15,2013-10-05 19:20:00,
2013-10-05 15:25:00,86.6,66.9,30.07,South,190,2.0,3.0,52,0.00,,,0.00,Wunderground v.1.15,2013-10-05 19:25:00,
2013-10-05 15:30:00,86.8,65.9,30.07,SSW,196,2.0,2.0,50,0.00,,,0.00,Wunderground v.1.15,2013-10-05 19:30:00,
2013-10-05 15:35:00,86.4,65.6,30.07,SSW,196,1.0,2.0,50,0.00,,,0.00,Wunderground v.1.15,2013-10-05 19:35:00,
2013-10-05 15:45:00,86.0,66.9,30.07,South,190,0.0,0.0,53,0.00,,,0.00,Wunderground v.1.15,2013-10-05 19:45:00,
2013-10-05 15:50:00,86.6,67.4,30.06,SSW,198,1.0,1.0,53,0.00,,,0.00,Wunderground v.1.15,2013-10-05 19:50:00,
2013-10-05 15:55:00,87.0,67.8,30.06,South,179,1.0,1.0,53,0.00,,,0.00,Wunderground v.1.15,2013-10-05 19:55:00,
2013-10-05 16:00:00,87.9,67.5,30.06,South,173,1.0,1.0,51,0.00,,,0.00,Wunderground v.1.15,2013-10-05 20:00:00,
2013-10-05 16:10:00,87.5,67.1,30.06,South,173,0.0,0.0,51,0.00,,,0.00,Wunderground v.1.15,2013-10-05 20:10:00,
2013-10-05 16:20:00,86.9,67.2,30.06,South,170,2.0,2.0,52,0.00,,,0.00,Wunderground v.1.15,2013-10-05 20:20:00,
2013-10-05 16:25:00,87.3,67.5,30.06,South,170,1.0,2.0,52,0.00,,,0.00,Wunderground v.1.15,2013-10-05 20:25:00,
2013-10-05 16:30:00,87.4,67.6,30.06,SSE,151,1.0,5.0,52,0.00,,,0.00,Wunderground v.1.15,2013-10-05 20:30:00,
2013-10-05 16:35:00,86.8,67.1,30.06,SE,139,1.0,5.0,52,0.00,,,0.00,Wunderground v.1.15,2013-10-05 20:35:00,
2013-10-05 16:40:00,86.9,67.2,30.06,SSE,155,2.0,2.0,52,0.00,,,0.00,Wunderground v.1.15,2013-10-05 20:40:00,
2013-10-05 16:50:00,87.0,66.1,30.06,South,180,2.0,2.0,50,0.00,,,0.00,Wunderground v.1.15,2013-10-05 20:50:00,
2013-10-05 16:55:00,87.0,66.1,30.06,South,188,2.0,2.0,50,0.00,,,0.00,Wunderground v.1.15,2013-10-05 20:55:00,
2013-10-05 17:00:00,86.8,67.1,30.05,South,188,2.0,2.0,52,0.00,,,0.00,Wunderground v.1.15,2013-10-05 21:00:00,
2013-10-05 17:10:00,86.5,67.3,30.05,South,179,0.0,0.0,53,0.00,,,0.00,Wunderground v.1.15,2013-10-05 21:10:00,
2013-10-05 17:15:00,86.4,67.2,30.06,South,179,0.0,0.0,53,0.00,,,0.00,Wunderground v.1.15,2013-10-05 21:15:00,
2013-10-05 17:25:00,86.3,67.2,30.05,South,179,0.0,0.0,53,0.00,,,0.00,Wunderground v.1.15,2013-10-05 21:25:00,
2013-10-05 17:30:00,86.2,67.1,30.06,South,179,0.0,0.0,53,0.00,,,0.00,Wunderground v.1.15,2013-10-05 21:30:00,
2013-10-05 17:35:00,86.1,67.5,30.06,South,179,0.0,0.0,54,0.00,,,0.00,Wunderground v.1.15,2013-10-05 21:35:00,
2013-10-05 17:40:00,85.8,67.8,30.06,South,179,0.0,0.0,55,0.00,,,0.00,Wunderground v.1.15,2013-10-05 21:40:00,
2013-10-05 17:45:00,85.6,68.1,30.06,South,179,0.0,0.0,56,0.00,,,0.00,Wunderground v.1.15,2013-10-05 21:45:00,
2013-10-05 17:50:00,85.3,68.3,30.05,South,179,0.0,0.0,57,0.00,,,0.00,Wunderground v.1.15,2013-10-05 21:50:00,
2013-10-05 18:00:00,84.7,68.3,30.05,South,179,0.0,0.0,58,0.00,,,0.00,Wunderground v.1.15,2013-10-05 22:00:00,
2013-10-05 18:10:00,84.1,68.7,30.06,South,179,0.0,0.0,60,0.00,,,0.00,Wunderground v.1.15,2013-10-05 22:10:00,
2013-10-05 18:15:00,83.6,68.2,30.05,South,179,0.0,0.0,60,0.00,,,0.00,Wunderground v.1.15,2013-10-05 22:15:00,
2013-10-05 18:20:00,83.2,69.3,30.05,South,179,0.0,0.0,63,0.00,,,0.00,Wunderground v.1.15,2013-10-05 22:20:00,
2013-10-05 18:25:00,82.7,70.2,30.05,South,179,0.0,0.0,66,0.00,,,0.00,Wunderground v.1.15,2013-10-05 22:25:00,
2013-10-05 18:35:00,81.1,70.0,30.05,South,179,0.0,0.0,69,0.00,,,0.00,Wunderground v.1.15,2013-10-05 22:35:00,
2013-10-05 18:40:00,80.2,69.9,30.06,South,179,0.0,0.0,71,0.00,,,0.00,Wunderground v.1.15,2013-10-05 22:40:00,
2013-10-05 18:45:00,79.5,69.7,30.06,South,179,0.0,0.0,72,0.00,,,0.00,Wunderground v.1.15,2013-10-05 22:45:00,
2013-10-05 18:50:00,78.8,69.0,30.06,South,179,0.0,0.0,72,0.00,,,0.00,Wunderground v.1.15,2013-10-05 22:50:00,
2013-10-05 18:55:00,78.3,69.3,30.06,South,179,0.0,0.0,74,0.00,,,0.00,Wunderground v.1.15,2013-10-05 22:55:00,
2013-10-05 19:00:00,77.7,69.1,30.06,South,179,0.0,0.0,75,0.00,,,0.00,Wunderground v.1.15,2013-10-05 23:00:00,
2013-10-05 19:10:00,76.8,69.0,30.06,South,179,0.0,0.0,77,0.00,,,0.00,Wunderground v.1.15,2013-10-05 23:10:00,
2013-10-05 19:15:00,76.3,68.9,30.06,South,179,0.0,0.0,78,0.00,,,0.00,Wunderground v.1.15,2013-10-05 23:15:00,
2013-10-05 19:20:00,75.9,68.9,30.06,South,179,0.0,0.0,79,0.00,,,0.00,Wunderground v.1.15,2013-10-05 23:20:00,
2013-10-05 19:25:00,75.5,68.5,30.06,South,179,0.0,0.0,79,0.00,,,0.00,Wunderground v.1.15,2013-10-05 23:25:00,
2013-10-05 19:30:00,75.1,67.8,30.06,South,179,0.0,0.0,78,0.00,,,0.00,Wunderground v.1.15,2013-10-05 23:30:00,
2013-10-05 19:40:00,74.7,67.8,30.06,South,179,0.0,0.0,79,0.00,,,0.00,Wunderground v.1.15,2013-10-05 23:40:00,
2013-10-05 19:45:00,74.4,67.8,30.06,South,179,0.0,0.0,80,0.00,,,0.00,Wunderground v.1.15,2013-10-05 23:45:00,
2013-10-05 19:50:00,74.2,68.0,30.06,South,179,0.0,0.0,81,0.00,,,0.00,Wunderground v.1.15,2013-10-05 23:50:00,
2013-10-05 19:55:00,74.1,67.9,30.06,South,179,0.0,0.0,81,0.00,,,0.00,Wunderground v.1.15,2013-10-05 23:55:00,
2013-10-05 20:00:00,73.9,67.7,30.07,South,179,0.0,0.0,81,0.00,,,0.00,Wunderground v.1.15,2013-10-06 00:00:00,
2013-10-05 20:10:00,73.7,67.5,30.07,South,179,0.0,0.0,81,0.00,,,0.00,Wunderground v.1.15,2013-10-06 00:10:00,
2013-10-05 20:15:00,73.5,67.3,30.07,South,179,0.0,0.0,81,0.00,,,0.00,Wunderground v.1.15,2013-10-06 00:15:00,
2013-10-05 20:20:00,73.5,67.3,30.07,South,179,0.0,0.0,81,0.00,,,0.00,Wunderground v.1.15,2013-10-06 00:20:00,
2013-10-05 20:25:00,73.4,67.2,30.07,South,179,0.0,0.0,81,0.00,,,0.00,Wunderground v.1.15,2013-10-06 00:25:00,
2013-10-05 20:35:00,73.5,67.3,30.07,South,179,0.0,0.0,81,0.00,,,0.00,Wunderground v.1.15,2013-10-06 00:35:00,
2013-10-05 20:40:00,73.6,67.4,30.07,South,179,0.0,0.0,81,0.00,,,0.00,Wunderground v.1.15,2013-10-06 00:40:00,
2013-10-05 20:45:00,73.6,67.4,30.07,South,179,0.0,0.0,81,0.00,,,0.00,Wunderground v.1.15,2013-10-06 00:45:00,
2013-10-05 20:50:00,73.5,66.9,30.07,South,179,0.0,0.0,80,0.00,,,0.00,Wunderground v.1.15,2013-10-06 00:50:00,
2013-10-05 20:55:00,73.4,67.2,30.07,South,179,0.0,0.0,81,0.00,,,0.00,Wunderground v.1.15,2013-10-06 00:55:00,
2013-10-05 21:05:00,73.1,66.9,30.08,South,179,0.0,0.0,81,0.00,,,0.00,Wunderground v.1.15,2013-10-06 01:05:00,
2013-10-05 21:10:00,73.1,66.9,30.08,South,179,0.0,0.0,81,0.00,,,0.00,Wunderground v.1.15,2013-10-06 01:10:00,
2013-10-05 21:15:00,73.2,67.0,30.08,South,179,0.0,0.0,81,0.00,,,0.00,Wunderground v.1.15,2013-10-06 01:15:00,
2013-10-05 21:20:00,73.4,67.2,30.08,South,179,0.0,0.0,81,0.00,,,0.00,Wunderground v.1.15,2013-10-06 01:20:00,
2013-10-05 21:25:00,73.5,67.3,30.08,South,179,0.0,0.0,81,0.00,,,0.00,Wunderground v.1.15,2013-10-06 01:25:00,
2013-10-05 21:30:00,73.6,67.4,30.08,South,179,0.0,0.0,81,0.00,,,0.00,Wunderground v.1.15,2013-10-06 01:30:00,
2013-10-05 21:40:00,73.6,67.4,30.08,South,179,0.0,0.0,81,0.00,,,0.00,Wunderground v.1.15,2013-10-06 01:40:00,
2013-10-05 21:45:00,73.6,67.4,30.08,South,179,0.0,0.0,81,0.00,,,0.00,Wunderground v.1.15,2013-10-06 01:45:00,
2013-10-05 21:50:00,73.5,67.3,30.08,South,179,0.0,0.0,81,0.00,,,0.00,Wunderground v.1.15,2013-10-06 01:50:00,
2013-10-05 21:55:00,73.3,67.1,30.08,South,179,0.0,0.0,81,0.00,,,0.00,Wunderground v.1.15,2013-10-06 01:55:00,
2013-10-05 22:00:00,73.2,67.4,30.08,South,179,0.0,0.0,82,0.00,,,0.00,Wunderground v.1.15,2013-10-06 02:00:00,
2013-10-05 22:10:00,73.1,66.9,30.09,South,179,0.0,0.0,81,0.00,,,0.00,Wunderground v.1.15,2013-10-06 02:10:00,
2013-10-05 22:15:00,73.2,67.0,30.09,South,179,0.0,0.0,81,0.00,,,0.00,Wunderground v.1.15,2013-10-06 02:15:00,
2013-10-05 22:20:00,73.3,66.8,30.09,South,179,0.0,0.0,80,0.00,,,0.00,Wunderground v.1.15,2013-10-06 02:20:00,
2013-10-05 22:25:00,73.2,67.0,30.09,South,179,0.0,0.0,81,0.00,,,0.00,Wunderground v.1.15,2013-10-06 02:25:00,
2013-10-05 22:30:00,73.0,66.8,30.09,South,179,0.0,0.0,81,0.00,,,0.00,Wunderground v.1.15,2013-10-06 02:30:00,
2013-10-05 22:40:00,72.8,66.6,30.09,South,179,0.0,0.0,81,0.00,,,0.00,Wunderground v.1.15,2013-10-06 02:40:00,
2013-10-05 22:45:00,72.7,66.5,30.09,South,179,0.0,0.0,81,0.00,,,0.00,Wunderground v.1.15,2013-10-06 02:45:00,
2013-10-05 22:50:00,72.5,66.7,30.09,South,179,0.0,0.0,82,0.00,,,0.00,Wunderground v.1.15,2013-10-06 02:50:00,
2013-10-05 22:55:00,72.4,66.6,30.09,South,179,0.0,0.0,82,0.00,,,0.00,Wunderground v.1.15,2013-10-06 02:55:00,
2013-10-05 23:00:00,72.2,66.4,30.09,South,179,0.0,0.0,82,0.00,,,0.00,Wunderground v.1.15,2013-10-06 03:00:00,
2013-10-05 23:10:00,71.8,66.4,30.09,South,179,0.0,0.0,83,0.00,,,0.00,Wunderground v.1.15,2013-10-06 03:10:00,
2013-10-05 23:15:00,71.6,66.2,30.09,South,179,0.0,0.0,83,0.00,,,0.00,Wunderground v.1.15,2013-10-06 03:15:00,
2013-10-05 23:20:00,71.4,66.3,30.09,South,179,0.0,0.0,84,0.00,,,0.00,Wunderground v.1.15,2013-10-06 03:20:00,
2013-10-05 23:25:00,71.3,66.2,30.09,South,179,0.0,0.0,84,0.00,,,0.00,Wunderground v.1.15,2013-10-06 03:25:00,
2013-10-05 23:30:00,71.3,66.2,30.09,South,179,0.0,0.0,84,0.00,,,0.00,Wunderground v.1.15,2013-10-06 03:30:00,
2013-10-05 23:35:00,71.2,66.1,30.09,South,179,0.0,0.0,84,0.00,,,0.00,Wunderground v.1.15,2013-10-06 03:35:00,
2013-10-05 23:40:00,71.1,66.0,30.09,South,179,0.0,0.0,84,0.00,,,0.00,Wunderground v.1.15,2013-10-06 03:40:00,
2013-10-05 23:50:00,70.8,66.1,30.09,South,179,0.0,0.0,85,0.00,,,0.00,Wunderground v.1.15,2013-10-06 03:50:00,
2013-10-05 23:55:00,70.6,65.9,30.09,South,179,0.0,0.0,85,0.00,,,0.00,Wunderground v.1.15,2013-10-06 03:55:00,